Location: Britannia Beach
(45.3521°N, 62.9901°W)
Time: 10:58:23
(UTC+00:00)

X-37B - Pass Details

Date: 02 August 2021
Orbit: 381 x 393 km, 45.0° (Epoch: 29 August)

Event Time Altitude Azimuth Distance (km) Brightness Sun altitude
Exits shadow 07:12:42 17° 158° (SSE) 1,042 2.5 -15.6°
Maximum altitude 07:13:05 18° 148° (SSE) 1,028 2.6 -15.5°
Drops below altitude 10° 07:15:17 10° 104° (ESE) 1,396 3.8 -15.3°
Sets 07:17:47 0° 84° (E) 2,253 5.3 -15.0°
